{"data":{"norad_id":69499,"epoch":"2026-09-19T07:59:44.221344Z","epoch_age_seconds":126290,"freshness":"FRESH","line1":"1 69499U 26131X   26262.33315071  .00015834  00000+0  49166-3 0  9990","line2":"2 69499  97.2846 283.2921 0001168  96.4470 263.6906 15.33452120 15462","mean_motion":15.3345212,"eccentricity":0.0001168,"inclination_deg":97.2846,"raan_deg":283.2921,"arg_perigee_deg":96.447,"mean_anomaly_deg":263.6906,"bstar":0.00049166,"rev_number":1546,"period_min":93.905768639193,"perigee_km":464.72265107936,"apogee_km":466.32132981953,"semimajor_km":6843.6589904494,"source":"CELESTRAK","updated_at":"2026-09-20T09:00:44.209717Z"}}